User: anonymous   Login
Location: Lamoine Observatory
(44.4551°N, 68.3470°W)
Time: 01:19:47
(UTC-04:00)
Language:

Cosmos 1674 Rocket - Orbit

View from above orbital plane
View from above orbital plane
View from above satellite
View from above satellite

Ground track
Ground track

The orbit data is extracted from the following two-line orbital elements,

1 15945U 85069B   15117.51836200  .00000402  00000-0  45688-4 0  9993
2 15945 082.5260 144.9624 0019364 346.0457 014.0220 14.83675237605119
Epoch (UTC): 27 April 2015 12:26:26
Eccentricity: 0.0019364
inclination: 82.5260°
perigee height: 604 km
apogee height: 631 km
right ascension of ascending node: 144.9624°
argument of perigee: 346.0457°
revolutions per day: 14.83675237
mean anomaly at epoch: 14.0220°
orbit number at epoch: 60511

The dashed part of the orbit path shows where the satellite is in the earth's shadow,  

DLR